TimePDT,TemperatureF,Dew PointF,Humidity,Sea Level PressureIn,VisibilityMPH,Wind Direction,Wind SpeedMPH,Gust SpeedMPH,PrecipitationIn,Events,Conditions,WindDirDegrees,DateUTC
12:58 AM,63.9,25.7,24,29.74,10.0,ENE,9.2,-,N/A,,Clear,70,2013-04-12 07:58:00
1:58 AM,63.3,25.7,24,29.73,10.0,East,10.4,-,N/A,,Clear,80,2013-04-12 08:58:00
2:58 AM,62.2,28.0,27,29.73,10.0,East,5.8,-,N/A,,Clear,100,2013-04-12 09:58:00
3:58 AM,61.3,28.4,29,29.73,10.0,East,10.4,-,N/A,,Clear,80,2013-04-12 10:58:00
4:58 AM,60.8,29.8,31,29.75,10.0,ENE,10.4,-,N/A,,Clear,70,2013-04-12 11:58:00
5:58 AM,60.1,26.2,28,29.75,10.0,North,3.5,-,N/A,,Clear,350,2013-04-12 12:58:00
6:58 AM,59.2,27.0,29,29.79,10.0,East,2.3,-,N/A,,Clear,90,2013-04-12 13:58:00
7:58 AM,64.0,28.9,27,29.81,10.0,East,8.1,-,N/A,,Clear,80,2013-04-12 14:58:00
8:58 AM,69.4,31.6,25,29.83,10.0,NNE,12.7,-,N/A,,Clear,30,2013-04-12 15:58:00
9:29 AM,71.6,32.0,23,29.87,10.0,North,12.7,-,N/A,,Clear,360,2013-04-12 16:29:00
9:58 AM,72.5,32.9,23,29.84,10.0,NE,12.7,-,N/A,,Clear,40,2013-04-12 16:58:00
10:58 AM,74.8,34.0,23,29.83,10.0,NE,11.5,-,N/A,,Clear,40,2013-04-12 17:58:00
11:58 AM,75.9,33.8,22,29.81,10.0,Variable,5.8,-,N/A,,Clear,0,2013-04-12 18:58:00
12:58 PM,77.9,33.1,20,29.79,10.0,Variable,5.8,-,N/A,,Clear,0,2013-04-12 19:58:00
1:58 PM,79.2,31.3,17,29.76,10.0,ENE,6.9,-,N/A,,Clear,60,2013-04-12 20:58:00
2:58 PM,81.5,31.6,16,29.73,10.0,WSW,5.8,-,N/A,,Clear,240,2013-04-12 21:58:00
3:58 PM,81.5,30.0,15,29.70,10.0,WNW,2.3,-,N/A,,Clear,290,2013-04-12 22:58:00
4:58 PM,82.0,29.1,15,29.68,10.0,West,6.9,-,N/A,,Clear,270,2013-04-12 23:58:00
5:58 PM,81.5,28.8,15,29.68,10.0,SE,5.8,-,N/A,,Clear,140,2013-04-13 00:58:00
6:58 PM,80.4,28.9,15,29.68,10.0,East,3.5,-,N/A,,Clear,90,2013-04-13 01:58:00
7:58 PM,76.5,29.3,18,29.69,10.0,ESE,5.8,-,N/A,,Clear,120,2013-04-13 02:58:00
8:58 PM,73.2,30.0,20,29.71,10.0,ENE,5.8,-,N/A,,Clear,70,2013-04-13 03:58:00
9:58 PM,72.0,30.0,21,29.72,10.0,NE,3.5,-,N/A,,Clear,40,2013-04-13 04:58:00
10:58 PM,70.9,30.7,23,29.72,10.0,North,2.3,-,N/A,,Clear,10,2013-04-13 05:58:00
11:58 PM,65.5,30.0,26,29.72,10.0,NE,4.6,-,N/A,,Clear,40,2013-04-13 06:58:00